Location: F�terne
(46.3526°N, 6.5639°E)
Time: 02:38:19
(UTC+00:00)

Daily predictions for brighter satellites

Satellite Brightness Start Highest point End
(mag) Time Altitude Azimuth Time Altitude Azimuth Time Altitude Azimuth
CENTAUR R/B 4.4 02:14:21 34° E 02:14:21 34° E 02:19:27 10° ESE
Cosmos 2263 Rocket 4.1 03:01:26 25° ENE 03:01:26 25° ENE 03:04:08 10° NE
SJ 16-02 4.3 03:08:47 13° ENE 03:08:47 13° ENE 03:09:44 10° ENE
CZ-4C R/B 4.3 03:25:49 15° SE 03:27:56 19° ESE 03:31:46 10° ENE
ATLAS 3B R/B 3.7 03:30:35 37° NNE 03:31:58 40° NE 03:38:36 10° ESE
Cosmos 1943 4.3 03:36:00 39° SE 03:36:00 39° SE 03:39:30 10° SE
Lacrosse 4 Rocket 3.8 03:38:11 21° ESE 03:38:11 21° ESE 03:39:48 10° SE
ALOS 3.4 03:49:55 10° NNE 03:53:16 40° NE 03:53:16 40° NE
NOSS 3-2 (C) 4.0 04:00:07 62° WSW 04:00:17 62° WSW 04:08:41 10° SSE
NOSS 3-4 (A) 3.3 04:00:50 73° S 04:01:18 79° SE 04:07:36 10° NE
NOSS 3-4 (C) 3.3 04:00:54 72° S 04:01:26 78° SE 04:07:45 10° NE
CENTAUR R/B 3.1 04:01:36 60° W 04:02:17 62° WSW 04:10:58 10° SSE
ARGOS Delta rocket 4.3 04:00:25 10° NNE 04:04:43 59° NE 04:04:43 59° NE
Cosmos 158 Rocket 4.0 04:10:38 66° NE 04:10:53 67° ENE 04:15:50 10° SSE
SL-4 R/B 3.7 04:15:02 27° NE 04:15:02 27° NE 04:17:01 10° ENE
Cosmos 1151 Rocket 3.9 04:17:01 43° SSE 04:17:01 43° SSE 04:19:57 10° SSE
Cosmos 1782 3.8 04:16:34 43° NE 04:17:06 46° ENE 04:20:59 10° SSE
Cosmos 1844 Rocket 4.4 04:12:28 10° SSE 04:17:27 33° ESE 04:22:28 10° NE
ATLAS 2AS CENTAUR R/B 3.0 04:15:30 23° SSW 04:20:54 84° SE 04:28:48 10° NE
ERS-2 4.3 04:18:10 10° SSE 04:19:17 19° SSE 04:19:17 19° SSE
Cosmos 1680 Rocket 3.8 04:20:02 37° N 04:22:08 67° ENE 04:27:25 10° SSE
ATLAS 5 CENTAUR R/B 3.8 04:31:19 18° NNE 04:31:19 18° NNE 04:32:07 10° NNE
Atlas Centaur 2 4.3 04:26:40 13° SSW 04:29:15 17° S 04:32:49 10° SE
RESURS DK-1 3.6 04:27:36 10° S 04:31:31 42° ESE 04:35:29 10° NE
CRYOSAT 2 4.5 04:27:36 10° SSE 04:32:26 75° E 04:37:19 10° N
ATLAS CENTAUR R/B 2.1 04:32:06 40° NNE 04:32:29 42° NE 04:36:12 10° ESE
Lacrosse 5 1.8 04:32:02 61° SW 04:32:58 88° SE 04:38:04 10° NE
ADEOS 3.4 04:29:06 10° NNE 04:34:21 81° WNW 04:39:34 10° SSW
Cosmos 1328 Rocket 3.4 04:35:39 79° W 04:35:42 79° W 04:40:07 10° S
Cosmos 2112 Rocket 4.0 04:38:53 27° NNW 04:41:55 83° ENE 04:47:16 10° SSE
Cosmos 2263 Rocket 2.6 04:43:11 40° NW 04:43:11 40° NW 04:48:15 10° NNE
Gbstr 26 Del rocket 2.5 04:43:34 84° S 04:43:34 84° S 04:47:24 10° ESE
SJ 16-02 1.6 04:45:52 48° NNW 04:45:52 48° NNW 04:49:31 10° NNE
Cosmos 1898 Rocket 3.6 04:47:19 10° SSW 04:52:38 78° ESE 04:57:59 10° NNE
Meteor 1-26 Rocket 4.2 04:48:59 17° NNW 04:53:19 58° W 04:58:47 10° S
FALCON 9 DEB 2.8 04:56:35 84° NE 04:56:35 84° NE 04:59:43 10° ENE
FALCON 9 DEB 2.9 04:56:45 79° NNE 04:56:45 79° NNE 04:59:49 10° ENE
FENGYUN 3A 3.9 04:54:00 10° N 04:59:08 45° WNW 05:04:15 10° SW
Cosmos 1743 Rocket 4.0 04:55:43 10° S 05:00:07 66° E 05:04:35 10° NNE
Cosmos 1408 Rocket 3.5 04:57:42 10° SSW 05:02:07 64° W 05:06:34 10° N
Cosmos 2181 Rocket 4.1 04:58:28 10° NNW 05:04:25 49° W 05:10:16 10° SSW
COSMO-SKYMED 1 2.6 05:01:12 10° S 05:05:29 57° W 05:08:00 23° NNW
USA 307 4.1 05:05:08 26° NNW 05:06:25 30° N 05:10:16 10° ENE
Cosmos 1709 Rocket 4.5 05:01:11 10° SW 05:07:01 37° WNW 05:12:55 10° N
Cosmos 1937 Rocket 3.6 05:04:34 10° SSW 05:09:43 79° ESE 05:14:55 10° NNE
USA 308 4.1 05:11:14 24° NNW 05:12:48 31° N 05:16:40 10° ENE
Lacrosse 4 Rocket 2.9 05:14:32 22° WSW 05:14:32 22° WSW 05:17:23 10° SSW
Meteor 2-3 Rocket 4.1 05:08:53 10° SW 05:14:16 42° WNW 05:19:46 10° N
Cosmos 1833 Rocket 4.4 05:09:41 10° N 05:14:27 27° NE 05:19:11 10° ESE
CZ-4C R/B 2.0 05:11:05 13° SW 05:15:35 70° NW 05:21:37 10° NE
MOS 1 Rocket 3.6 05:11:02 10° SSE 05:15:51 77° ENE 05:21:00 10° N
Cosmos 2154 Rocket 4.2 05:09:46 10° S 05:15:57 73° E 05:22:12 10° NNE
CZ-4B R/B 3.1 05:13:24 10° N 05:17:52 62° WNW 05:22:12 10° SSW
Cosmos 1689 Rocket 2.5 05:15:47 10° S 05:18:12 39° WSW 05:18:12 39° WSW
Cosmos 1805 Rocket 4.5 05:15:02 10° S 05:19:20 52° E 05:23:40 10° NNE
FALCON 9 DEB 2.9 05:18:33 43° W 05:19:21 60° NNW 05:22:33 10° NE
Meteor 1-10 Rocket 4.2 05:15:19 10° N 05:20:55 88° E 05:26:32 10° S
SAR-Lupe-4 4.3 05:19:10 10° SSW 05:22:22 31° W 05:22:38 30° W
ATLAS 3B R/B 2.8 05:17:51 19° NW 05:23:00 60° WSW 05:30:04 10° SSE
Aureole 2 Rocket 2.3 05:21:11 10° S 05:23:40 54° ESE 05:26:10 10° NNE
Cosmos 1862 3.2 05:22:49 10° SSW 05:26:52 76° W 05:30:57 10° N
Genesis I 3.1 05:24:54 12° SW 05:28:18 59° NW 05:32:07 10° NNE
YAOGAN 6 3.1 05:25:07 10° NNE 05:28:36 59° E 05:32:02 10° S
deb Chang Zheng 4 4.3 05:27:44 10° N 05:31:30 29° WNW 05:35:16 10° SW
ALOS 3.4 05:28:05 10° NNW 05:31:33 21° WNW 05:31:45 21° WNW
Cosmos 858 Rocket 4.4 05:28:51 10° SSW 05:34:02 68° WNW 05:39:17 10° NNE
Cosmos 2327 Rocket 4.4 05:29:17 10° SSW 05:35:22 80° W 05:41:29 10° N
Cosmos 990 Rocket 4.3 05:30:29 10° SW 05:35:27 43° WNW 05:40:29 10° N
Cosmos 2074 Rocket 4.1 05:30:48 10° SSW 05:36:50 53° WNW 05:42:55 10° N
PSLV R/B 3.6 05:33:33 10° NNE 05:37:26 82° WNW 05:41:13 10° SSW
ASTRO F (AKARI) 4.2 05:36:20 10° N 05:39:23 53° WNW 05:42:27 10° SSW
Meteor 1-31 Rocket 4.3 05:38:33 10° NNW 05:40:29 17° NW 05:40:29 17° NW
USA 305 3.9 05:38:55 16° NW 05:41:49 35° NNE 05:45:49 10° E
BREEZE M DEB (TANK) 3.3 05:34:24 10° SW 05:42:05 56° SSE 05:44:49 10° ENE
Cosmos 405 Rocket 2.7 05:39:07 10° SSW 05:42:43 54° WNW 05:46:25 10° N
SL-24 DEB 4.3 05:38:12 10° S 05:42:58 88° W 05:47:47 10° N
EO 1 Delta rocket 4.2 05:41:56 10° S 05:46:48 46° W 05:51:16 10° NNW
Cosmos 1812 3.1 05:43:39 10° NNW 05:47:18 42° W 05:50:56 10° SSW
Cosmos 1295 Rocket 4.4 05:42:14 10° S 05:48:18 80° W 05:54:27 10° N
Cosmos 2228 Rocket 3.3 05:45:35 10° NNW 05:49:50 46° W 05:54:01 10° SSW
USA 306 3.9 05:47:01 14° NW 05:50:19 37° NNE 05:54:20 10° E
NOSS 3-4 (A) 4.3 05:48:19 13° W 05:52:52 30° NNW 05:58:32 10° NNE
Cosmos 1633 Rocket 4.3 05:48:41 10° SSE 05:52:55 46° E 05:57:09 10° NNE
NOSS 3-4 (C) 4.3 05:48:24 13° W 05:53:00 30° NNW 05:58:40 10° NNE
Cosmos 1782 4.4 05:52:15 15° WNW 05:53:00 15° W 05:55:24 10° WSW
SL-4 R/B 2.6 05:50:37 15° WNW 05:53:28 39° N 05:56:54 10° E
Cosmos 2184 Rocket 4.4 05:48:31 10° SW 05:54:28 42° WNW 06:00:29 10° N
USA 234 3.6 05:51:44 10° NE 05:58:16 71° SE 06:04:47 10° SW
Cosmos 1356 3.7 05:55:00 10° S 05:58:23 70° E 06:01:48 10° NNE
FALCON 9 DEB 3.8 05:56:58 14° W 05:59:20 34° NNW 06:02:20 10° NE
Cosmos 1844 Rocket 3.0 05:55:50 10° SW 06:01:12 43° NW 06:06:38 10° NNE
FALCON 9 DEB 4.1 05:59:52 12° NW 06:02:49 36° NNE 06:06:03 10° E
Cosmos 1707 Rocket 3.5 06:02:34 10° N 06:06:55 80° W 06:11:14 10° S
EXPRESS MD2 4.2 06:03:36 11° WNW 06:07:25 88° SSW 06:15:46 10° ESE
MOS 1-B 4.3 06:02:52 10° NNE 06:08:41 72° WNW 06:14:27 10° SSW
COSMOS 2455 2.8 06:03:16 10° SW 06:09:18 77° NW 06:15:23 10° NNE
RESURS DK-1 3.5 06:06:24 10° WSW 06:09:44 23° NW 06:13:06 10° N
BREEZE-M (TANK) 4.0 06:04:02 10° SW 06:10:43 41° SSE 06:13:15 10° E
ATLAS CENTAUR R/B 2.7 06:08:18 10° WNW 06:11:08 21° WSW 06:14:07 10° SSW
BREEZE-M DEB 4.2 06:03:05 10° WNW 06:11:37 39° SW 06:14:36 10° SSE
NOAA 6 4.1 06:06:47 10° N 06:11:49 58° WNW 06:16:49 10° SSW
ATLAS 2AS CENTAUR R/B 3.6 06:05:34 10° W 06:12:46 35° NNW 06:19:48 10° NNE
H-2A R/B 3.8 06:11:07 10° NNW 06:14:21 25° WNW 06:17:32 10° WSW
Cosmos 1844 4.0 06:09:53 10° SW 06:15:07 41° NW 06:20:25 10° NNE
Lacrosse 5 2.7 06:11:55 10° W 06:16:28 32° NNW 06:21:01 10° NE
CZ-4B DEB 4.3 06:11:38 10° N 06:16:56 53° WNW 06:22:14 10° SW
Atlas Centaur 2 4.4 06:14:42 10° SW 06:17:10 13° SSW 06:19:26 10° S
Cosmos 1437 Rocket 3.5 06:14:03 10° NNW 06:17:26 31° W 06:20:46 10° SSW
Cosmos 372 Rocket 4.1 06:13:30 10° SW 06:18:29 53° WNW 06:23:29 10° NNE
Okean O Rocket 1.6 06:16:08 10° N 06:20:36 76° WNW 06:25:03 10° SSW
Geosat 4.1 06:16:34 10° SSE 06:21:35 85° ENE 06:26:40 10° NNW
Cosmos 1242 Rocket 3.1 06:18:55 10° N 06:22:33 63° ENE 06:26:11 10° SSE
PAYLOAD B 4.3 06:17:59 10° N 06:23:24 57° WNW 06:28:45 10° SSW
SMAP 3.1 06:19:40 10° N 06:24:17 62° WNW 06:28:52 10° SSW
USA 81 4.1 06:19:09 10° SSW 06:24:22 66° W 06:29:38 10° N
